Location: Fort Wayne
(41.1310°N, 85.1290°W)
Time: 16:27:02
(UTC-04:00)

Vanguard 3 - Visible Passes

Search period start: 20 April 2018 00:00
Search period end: 30 April 2018 00:00
Orbit: 508 x 3264 km, 33.3° (Epoch: 20 April)

Date Brightness Start Highest point End Pass type
(mag) Time Alt. Az. Time Alt. Az. Time Alt. Az.
20 Apr 10.2 02:41:50 14° ESE 02:41:50 14° ESE 02:43:22 10° ESE visible
20 Apr 9.2 04:46:28 28° SSW 04:47:01 28° SSW 04:57:18 10° SSE visible
21 Apr 9.8 03:37:27 22° SSE 03:37:27 22° SSE 03:41:55 10° SE visible
21 Apr 9.7 05:42:05 15° SW 05:45:36 18° SSW 05:53:21 10° S visible
22 Apr 9.7 04:33:09 21° S 04:33:09 21° S 04:39:18 10° SSE visible
23 Apr 10.4 03:24:16 11° SE 03:24:16 11° SE 03:24:31 10° SE visible
23 Apr 10.0 05:28:55 12° SSW 05:29:36 12° SSW 05:33:48 10° S visible
23 Apr 8.2 21:39:31 10° S 21:40:52 13° SSE 21:40:52 13° SSE visible
24 Apr 10.2 04:20:05 12° S 04:20:05 12° S 04:21:04 10° SSE visible
24 Apr 8.6 22:35:49 10° SW 22:36:14 12° SW 22:36:14 12° SW visible
25 Apr 8.0 21:23:13 10° SSW 21:25:35 16° SSE 21:26:54 13° SE visible
26 Apr 7.8 22:20:07 10° SW 22:22:08 21° SSW 22:22:08 21° SSW visible
27 Apr 7.9 21:07:00 10° SW 21:09:59 19° SSE 21:12:39 10° ESE visible
28 Apr 7.3 22:04:22 10° SW 22:07:36 25° S 22:07:49 25° S visible
29 Apr 8.5 23:02:08 10° WSW 23:02:54 14° SW 23:02:54 14° SW visible
